KEPLER-2 (TARS) (46319 NORAD) Tracking and Keplerian Element Data

This shows tracking and keplerian element data for the satellite.

Feedback or suggestion? Click here.




ElementValue
Catalog46319
NameKEPLER-2 (TARS)
Epoch Orbit1378
Epoch Day338.46543858
Epoch Year2020
RAAN49.9889
Inclination97.5106
Eccentricity0.0001325
Argument of Perigee315.8046
Mean Anonmoly44.3078
Mean Motion15.11108025
Decay Rate1.501E-05
L11 46319U 20061AZ 20338.46543858 .00001501 00000-0 93386-4 0 9991
L22 46319 97.5106 49.9889 0001325 315.8046 44.3078 15.11108025 13787

Live tracking and technical data element details for KEPLER-2 (TARS) (NORAD 46319). KEPLER-2 (TARS) can be tracked NOW for your location showing map with azimuth and elevation plus other details from your city location.

Track the satellite on the map from your city or location and see movement details for azimuth, elevation, latitude, longitude, range, height, and movement on the map or in text.







IsCatalogInMostPopularTable: catalog: 46319, numindb: 16
Update: records affected: 1



GetName: 46319 KEPLER-2 (TARS)

Hit Count: updated at: Sun, 06 Dec 2020 00:24:51 GMT